« Back
NWS Peachtree City, Ga » Text Product » GA Regional Weather Roundup


Printer-friendly Version
Current Version              Previous Versions:   1  2  3  4  5  6  7  8  9  

Regional Weather Roundup

745
ASUS42 KFFC 200603
RWRGA
WEATHER ROUNDUP FOR GEORGIA
NATIONAL WEATHER SERVICE PEACHTREE CITY GA
200 AM EDT MON OCT 20 2014

NOTE: "FAIR" INDICATES FEW OR NO CLOUDS BELOW 12,000 FEET WITH NO
SIGNIFICANT WEATHER AND/OR OBSTRUCTIONS TO VISIBILITY.

* = USE WITH CAUTION. THE STATIONS MARKED WITH AN ASTERISK MAY NOT
REPORT WEATHER SUCH AS PRECIPITATION, FOG, OR THUNDER AND ARE NOT
QUALITY CONTROLLED BY NWS.

THE REMARK "TC" DENOTES TEMPERATURE READING IN DEGREES CELSIUS.

GAZ001>058-200700-
NORTH GEORGIA

CITY           SKY/WX    TMP DP  RH WIND       PRES   REMARKS
ATLANTA        CLEAR     54  48  80 CALM      30.10S
6HR MIN TEMP:  53; 6HR MAX TEMP:  64;

ATHENS         CLEAR     47  45  93 CALM      30.11S
6HR MIN TEMP:  47; 6HR MAX TEMP:  57;

CHAMBLEE       CLEAR     47  45  93 CALM      30.10S
6HR MIN TEMP:  47; 6HR MAX TEMP:  57;

PEACHTREE CITY CLEAR     46  44  93 CALM      30.11S
6HR MIN TEMP:  46; 6HR MAX TEMP:  55;

ROME           CLEAR     46  44  93 CALM      30.10S
6HR MIN TEMP:  45; 6HR MAX TEMP:  59;

WEST ATLANTA   CLEAR     48  46  93 CALM      30.11R
6HR MIN TEMP:  48; 6HR MAX TEMP:  62;

GAINESVILLE    CLEAR     51  48  89 CALM      30.13S
6HR MIN TEMP:  51; 6HR MAX TEMP:  60;

CARTERSVILLE   CLEAR     45  43  93 CALM      30.11S
6HR MIN TEMP:  44; 6HR MAX TEMP:  52;



CITY           SKY/WX    TMP DP  RH WIND       PRES   REMARKS
DALTON*        PTCLDY    43  43 100 CALM      30.10F
MARIETTA       CLEAR     49  48  96 CALM      30.10S
$$

GAZ059>098-102>109-200700-
CENTRAL GEORGIA

CITY           SKY/WX    TMP DP  RH WIND       PRES   REMARKS
AUGUSTA-BUSH   PTCLDY    44  43  96 CALM      30.13S
6HR MIN TEMP:  43; 6HR MAX TEMP:  56;

AUGUSTA-DANIEL PTCLDY    56  50  80 CALM      30.13S
6HR MIN TEMP:  55; 6HR MAX TEMP:  66;

COLUMBUS       CLEAR     52  50  93 CALM      30.09F
6HR MIN TEMP:  52; 6HR MAX TEMP:  65;

MACON          CLEAR     46  46 100 CALM      30.10F FOG
6HR MIN TEMP:  46; 6HR MAX TEMP:  58;

ROBINS AFB     CLEAR     50  49  96 CALM      30.10F


CITY           SKY/WX    TMP DP  RH WIND       PRES   REMARKS
LAGRANGE*      CLEAR     49  48  97 CALM      30.10S
SYLVANIA*      CLEAR     51  51  98 CALM      30.14R
MILLEDGEVILLE* CLEAR     52  52 100 CALM      30.11F
$$

GAZ099>101-110>166-200700-
SOUTH GEORGIA

CITY           SKY/WX    TMP DP  RH WIND       PRES   REMARKS
SAVANNAH       CLEAR     54  49  83 CALM      30.13S
6HR MIN TEMP:  53; 6HR MAX TEMP:  62;

VALDOSTA       CLEAR     55  50  83 CALM      30.09F
6HR MIN TEMP:  53; 6HR MAX TEMP:  63;

ALMA           CLEAR     50  48  93 CALM      30.11F
6HR MIN TEMP:  49; 6HR MAX TEMP:  56;

ST SIMONS      CLEAR     55  54  96 CALM      30.11S
6HR MIN TEMP:  55; 6HR MAX TEMP:  63;

FT STEWART     CLEAR     49  47  93 CALM      30.11S
ALBANY         CLEAR     53  50  89 CALM      30.11S
HUNTER AFB     CLEAR     53  52  97 CALM      30.11S
MOODY AFB      CLEAR     55  53  92 E3        30.09F
BRUNSWICK        N/A     54  52  94 CALM      30.12S VSB 3/4


CITY           SKY/WX    TMP DP  RH WIND       PRES   REMARKS
BAINBRIDGE*    CLEAR     55  54  94 E3        30.08F
MOULTRIE*      CLEAR     55  54  94 CALM      30.10S
VIDALIA*       CLEAR     55  52  88 CALM      30.12S
WAYCROSS*      CLEAR     56  56 100 CALM      30.11F FOG
DOUGLAS*       CLEAR     59  54  82 E3        30.12F
$$



USA.gov is the U.S. government's official web portal to all federal, state and local government web resources and services.